Regional Weather Roundup
Issued by NWS

Home | Current Version | Previous Version | Graphics & Text | Print | Product List | Glossary On
Versions: 1 2 3 4 5 6 7 8 9 10 11 12 13 14 15 16 17 18 19 20 21 22 23 24 25 26 27 28 29 30 31 32 33 34 35 36 37 38 39 40 41 42 43 44 45 46 47 48 49 50
682
ASUS43 KBIS 261110
RWRND

NORTH DAKOTA REGIONAL WEATHER ROUNDUP
NATIONAL WEATHER SERVICE BISMARCK ND
600 AM CDT SUN MAR 26 2017

NOTE: "FAIR" INDICATES FEW OR NO CLOUDS BELOW 12,000 FEET WITH NO
SIGNIFICANT WEATHER AND/OR OBSTRUCTIONS TO VISIBILITY.


NDZ001>003-009>011-017-261200-
NORTHWEST NORTH DAKOTA

CITY           SKY/WX    TMP DP  RH WIND       PRES   REMARKS
WILLISTON      FAIR      36  32  85 CALM      29.89S
MINOT          FAIR      38  33  82 SW7       29.89S
MINOT AFB      MOCLDY    34  32  93 W7        29.88S
$$

NDZ018>021-031>035-040>046-261200-
SOUTHWEST NORTH DAKOTA

CITY           SKY/WX    TMP DP  RH WIND       PRES   REMARKS
BISMARCK       CLOUDY    38  34  85 CALM      29.93S
DICKINSON      MOCLDY    38  34  85 SE8       29.88S
GARRISON         N/A     36  33  89 SE5       29.89S
HETTINGER ARPT CLOUDY    43  35  73 N12       29.90S
$$

NDZ004>008-012>016-024-026-027-054-261200-
NORTHEAST NORTH DAKOTA

CITY           SKY/WX    TMP DP  RH WIND       PRES   REMARKS
GRAND FORKS    CLOUDY    34  33  96 S8        29.97R
GRND FRKS AFB  CLOUDY    33  33  99 S10       29.96S
DEVILS LAKE    CLOUDY    33  32  96 SE6       29.91F
$$

NDZ022-023-025-028>030-036>039-047>053-261200-
SOUTHEAST NORTH DAKOTA

CITY           SKY/WX    TMP DP  RH WIND       PRES   REMARKS
FARGO          CLOUDY    34  33  96 SE3       29.98S
JAMESTOWN      FOG       33  33 100 S5        29.93S VSB 1/4
$$





USA.gov is the U.S. government's official web portal to all federal, state and local government web resources and services.